Погода в Кривцах

Россия / Республика Карелия     61°48′06″N   36°57′45″E
темп.,
°C
ветер,
м/с
пор.,
м/с
влажн.,
%
обл.,
%
осадки,
мм/ч
давл.,
гПа
погр.,
м
6 мая, чт
чт600:00−2ю11845 0.0 100610
03:00−2ююв1182100 0.0 100715
06:00+1вюв2572100 0.0 1006182
09:00+5вюв4660100 0.0 1005742
12:00+5вюв51178100 0.5 1002768
15:00+4в61593100 5.5 999825
18:00+7вюв61594100 0.9 994657
21:00+9юв41293100 2.7 990654
7 мая, пт
пт700:00+4ююз61395100 1.6 993902
03:00+5юз51389100 1.6 9951208
06:00+5ююз61195100 0.3 997973
09:00+5ююз41094100 0.7 9991067
12:00+5ююз5108793 0.3 10011113
15:00+6юз598488 0.9 1003972
18:00+6юз388346 0.3 1004917
21:00+3юз229590 0.4 100646
8 мая, сб
сб800:00+4ю1395100 0.1 1007122
03:00+4юв1493100 0.1 1007119
06:00+4вюв2690100 0.0 1007195
09:00+7юв3782100 0.3 10061014
12:00+7юв41491100 1.4 10041577
15:00+6ююв51193100 2.3 10031093
18:00+6ююв41092100 1.5 10021067
21:00+6ююв2895100 3.8 1001857
9 мая, вс
вс900:00+6юв2696100 1.3 999354
03:00+5св1399100 2.0 998104
06:00+5сз2599100 2.9 997229
09:00+2сз51197100 4.9 1000588
12:00+3зсз61388100 0.4 10051057
15:00+9з6105931 0.4 10091906
18:00+8з511535 0.0 10132130
21:00+4юз397591 0.0 1015281
10 мая, пн
пн1000:00+4ююз3117599 0.1 1017397
03:00+3ююз31086100 0.3 1019307
06:00+4ююз3108789 0.0 1019472
09:00+8юз486997 0.0 1020928
12:00+9юз4874100 0.1 10211162
15:00+7ююз4886100 0.1 1021690
18:00+8ю41291100 0.4 1021535
21:00+11ююз51585100 0.8 1019708